Wind_Speed
14 15 15 15 16 17 17 18 19 19 20 21 22 23 24 25 25 26 26 26 25 26 27 29 29 29 30 30 30 31 31 31 31 32 33 34 34 35
15 16 16 17 17 17 17 18 19 19 20 21 22 23 23 24 25 25 26 26 27 27 26 28 29 30 30 30 30 31 32 32 32 32 34 34 34 34
15 16 16 17 17 17 18 18 18 19 19 21 22 23 23 24 25 25 26 26 26 26 26 26 28 29 30 30 30 32 33 33 33 34 34 35 35 35
15 15 16 16 16 17 18 17 17 19 20 21 22 23 23 24 25 25 26 27 27 27 26 26 27 28 28 29 31 31 33 34 34 34 35 35 35 35
16 15 16 16 16 17 17 18 18 19 20 20 20 21 22 23 24 25 26 27 27 27 27 27 27 28 29 30 31 31 32 33 34 34 35 35 36 36
16 16 16 16 16 17 17 18 19 19 20 20 20 21 21 22 23 23 24 25 25 26 27 27 27 27 28 29 30 31 31 32 33 33 33 34 35 36
17 17 17 18 18 19 19 19 20 20 20 20 20 21 21 22 22 22 23 23 23 23 24 25 26 26 27 28 29 29 30 30 31 32 33 32 33 34
18 18 18 19 20 20 21 21 21 21 21 21 21 21 21 22 22 22 22 22 22 23 23 24 24 24 25 26 27 29 30 31 31 31 32 32 32 32
18 18 19 20 20 21 22 22 22 22 22 22 21 21 21 21 22 22 22 22 22 23 24 24 24 25 26 26 27 27 27 28 30 30 30 31 31 32
19 19 20 20 21 22 22 23 23 23 23 23 22 21 21 21 22 22 23 23 23 23 24 25 25 26 26 26 27 27 27 27 28 29 30 30 31 31
20 21 21 21 22 22 23 23 23 23 24 24 23 23 22 22 23 23 23 24 23 23 24 26 26 26 26 26 27 27 27 27 28 29 29 30 31 32
21 22 22 22 22 22 23 22 23 23 23 23 23 23 23 23 24 24 24 24 24 24 25 26 26 26 26 27 28 28 28 28 28 30 31 32 33 33
22 23 23 23 22 22 22 22 22 22 22 22 23 23 23 24 24 25 25 25 25 25 25 26 26 26 26 26 27 28 28 29 29 30 32 32 33 34
22 23 23 23 22 21 22 23 22 22 22 23 23 23 23 24 24 25 25 26 26 26 26 26 26 27 27 28 28 28 29 29 30 31 31 32 32 33
22 23 23 23 23 22 23 23 23 23 24 24 24 24 24 24 25 25 25 25 26 26 25 26 27 27 28 28 28 29 29 29 30 31 31 31 31 32
23 23 23 23 23 24 24 23 24 24 24 25 25 25 25 25 26 26 26 26 26 26 26 26 26 27 27 28 29 29 29 30 30 30 30 30 31 32
23 23 23 23 24 24 24 23 23 24 25 25 25 25 26 26 26 26 27 27 27 27 27 27 26 26 27 28 28 28 29 29 29 30 30 30 31 32
23 23 24 24 23 23 24 24 24 24 24 25 25 26 26 26 25 25 26 26 26 26 26 27 27 28 28 28 28 28 27 27 28 28 29 29 29 30
23 23 24 24 24 24 24 24 24 25 25 25 25 25 25 25 25 25 26 26 26 26 26 27 27 28 28 28 27 27 27 26 26 27 27 28 28 29
23 23 24 24 24 24 24 25 26 25 25 25 26 26 26 25 25 25 25 25 25 25 25 26 26 26 27 27 26 26 26 26 26 26 26 27 27 28
23 23 24 24 24 25 25 25 25 25 25 25 25 25 25 25 25 25 24 24 24 24 24 24 24 25 25 26 25 25 25 25 25 25 26 26 26 26
23 24 24 24 25 25 25 24 25 25 25 24 24 24 24 24 24 24 24 24 24 24 24 24 24 24 25 25 25 25 25 26 25 25 25 25 25 24
23 23 24 24 25 25 24 24 24 24 24 24 24 24 23 23 23 23 24 24 24 24 24 24 24 24 25 25 25 25 25 24 24 23 23 24 23 23
Wind_Direction
283 286 288 288 288 285 282 279 276 275 275 275 275 274 272 270 268 265 265 264 264 263 261 260 257 256 256 255 256 255 255 255 253 251 250 250 250 250
286 287 289 288 291 288 285 282 279 276 276 274 274 275 274 272 269 267 265 264 264 265 263 259 257 256 255 256 256 255 254 253 252 252 251 250 251 252
293 292 291 291 290 287 286 284 282 279 278 276 275 275 275 274 271 269 267 266 267 265 264 262 259 257 255 254 254 255 254 253 253 252 250 250 252 251
295 297 295 293 292 291 289 286 283 282 280 279 277 275 274 275 273 272 271 269 268 266 266 265 263 260 258 257 256 256 255 255 255 253 252 252 252 251
296 298 298 297 297 296 294 291 290 289 288 285 283 280 279 278 277 275 273 272 269 267 266 265 264 262 261 259 258 258 257 256 256 255 254 254 253 253
298 300 301 301 301 301 300 297 293 291 290 289 286 285 284 283 282 280 277 275 274 270 268 267 265 264 264 261 260 260 259 257 256 255 255 255 254 253
295 297 298 300 299 301 302 301 298 296 294 291 288 287 286 286 284 282 279 277 276 274 272 269 268 267 266 264 262 261 260 259 258 256 254 254 253 254
292 295 297 299 300 301 300 298 298 298 296 293 290 289 287 286 285 284 280 278 277 276 274 272 270 270 270 269 266 264 263 261 260 260 258 255 254 254
295 297 298 298 298 299 298 297 297 296 296 293 291 289 288 287 286 285 283 280 279 277 274 272 270 271 272 270 268 267 267 265 262 260 259 257 256 254
295 297 298 298 298 298 297 297 297 296 296 295 292 290 289 288 287 285 284 283 280 278 275 272 271 271 268 269 267 267 268 267 264 261 259 258 257 256
295 295 296 297 298 298 297 297 297 296 296 296 295 292 289 288 288 286 286 285 281 279 277 275 273 271 268 268 265 265 266 266 264 261 260 259 258 258
294 295 296 298 298 297 296 295 295 295 296 295 293 293 291 289 288 288 287 287 285 282 280 277 275 273 272 268 265 264 264 265 264 263 262 262 261 261
292 293 294 296 297 297 296 295 295 296 296 294 294 293 292 291 290 289 288 287 286 284 281 279 276 274 273 270 267 266 266 267 267 266 264 263 262 262
291 292 294 296 297 298 297 296 295 295 295 295 295 294 293 292 291 290 290 288 286 285 283 281 279 276 274 273 271 270 269 270 270 270 267 264 263 262
290 291 294 295 296 297 298 298 296 295 296 295 295 294 293 292 291 290 289 289 287 286 286 285 282 280 278 276 275 274 272 273 273 272 269 267 266 265
291 290 293 296 297 298 298 298 297 297 297 296 295 294 294 293 292 290 290 289 288 286 286 285 283 281 280 278 278 277 274 274 273 272 270 267 266 266
291 291 293 294 295 296 297 297 298 297 297 297 295 294 294 294 293 291 291 291 289 286 286 285 283 281 281 279 279 278 275 274 274 273 270 268 268 267
291 293 293 294 295 296 296 297 297 297 298 297 296 295 294 294 293 293 292 292 291 290 289 288 286 283 282 280 280 279 277 275 274 273 273 272 270 268
292 292 293 293 295 296 296 297 297 297 297 298 298 299 298 297 296 295 295 294 293 291 291 289 286 284 283 283 281 279 278 277 276 275 275 275 273 270
292 292 292 293 295 295 296 298 299 298 298 298 299 300 300 299 299 299 298 296 294 292 291 290 288 286 284 283 282 280 277 276 277 277 277 277 275 273
292 292 293 294 295 297 298 298 299 299 299 299 300 301 301 300 299 299 298 297 296 295 293 291 291 289 287 286 284 282 280 278 277 278 278 278 277 276
293 294 294 294 297 299 300 300 300 299 299 299 300 301 302 301 301 300 298 297 297 296 294 291 290 291 289 286 285 283 281 280 278 279 279 278 278 278
294 295 294 295 298 299 300 300 301 301 300 300 300 301 302 303 302 300 299 298 298 297 295 293 293 293 292 289 286 285 284 282 280 277 277 277 277 277
Height
5786 5785 5784 5783 5781 5780 5779 5778 5778 5778 5778 5777 5777 5777 5776 5776 5776 5776 5777 5777 5777 5778 5778 5779 5780 5781 5783 5784 5786 5787 5789 5791 5793 5795 5798 5800 5802 5805
5782 5781 5780 5778 5777 5775 5774 5773 5773 5773 5772 5772 5771 5770 5770 5770 5769 5769 5769 5769 5770 5770 5770 5771 5772 5773 5774 5776 5778 5779 5781 5782 5784 5786 5788 5791 5794 5796
5778 5777 5775 5774 5773 5771 5770 5769 5768 5767 5766 5766 5765 5764 5764 5763 5762 5762 5762 5762 5762 5763 5763 5763 5764 5765 5766 5767 5769 5770 5772 5773 5775 5777 5779 5782 5784 5787
5775 5773 5771 5770 5768 5767 5765 5764 5763 5762 5761 5760 5759 5758 5758 5757 5756 5755 5755 5755 5755 5755 5755 5756 5756 5757 5758 5759 5760 5761 5763 5764 5766 5768 5771 5773 5775 5777
5771 5769 5768 5766 5764 5763 5761 5759 5758 5757 5756 5754 5753 5752 5751 5750 5749 5748 5748 5747 5747 5747 5747 5748 5748 5749 5750 5751 5752 5753 5754 5756 5758 5759 5761 5763 5765 5767
5767 5765 5764 5762 5760 5758 5757 5755 5753 5751 5750 5749 5748 5746 5745 5744 5743 5742 5741 5740 5740 5740 5740 5740 5741 5741 5742 5743 5744 5744 5745 5747 5749 5750 5752 5753 5755 5757
5763 5761 5760 5758 5756 5754 5752 5750 5748 5746 5745 5743 5742 5741 5739 5738 5737 5735 5735 5734 5733 5733 5733 5733 5733 5734 5734 5734 5735 5736 5737 5738 5740 5741 5742 5744 5746 5748
5759 5757 5755 5753 5751 5749 5747 5745 5743 5741 5740 5738 5737 5735 5734 5732 5731 5729 5728 5727 5727 5727 5726 5726 5726 5726 5726 5726 5727 5727 5728 5729 5730 5732 5733 5735 5737 5738
5754 5752 5750 5748 5746 5744 5742 5740 5738 5736 5734 5733 5731 5730 5728 5727 5725 5724 5722 5721 5720 5719 5719 5719 5719 5719 5719 5719 5719 5719 5719 5720 5721 5722 5724 5725 5727 5729
5749 5747 5745 5743 5741 5739 5736 5734 5732 5730 5728 5726 5725 5723 5722 5720 5719 5717 5716 5714 5714 5713 5712 5712 5712 5711 5711 5711 5711 5711 5712 5712 5713 5714 5715 5716 5718 5719
5743 5741 5739 5737 5735 5733 5731 5728 5726 5724 5722 5720 5719 5717 5715 5714 5712 5711 5710 5708 5707 5707 5705 5704 5704 5703 5703 5703 5703 5703 5703 5704 5705 5705 5706 5707 5708 5710
5737 5735 5733 5731 5729 5727 5724 5722 5720 5718 5716 5714 5712 5710 5709 5707 5706 5704 5703 5701 5700 5700 5698 5697 5696 5695 5695 5696 5695 5695 5695 5695 5696 5696 5697 5698 5699 5700
5731 5729 5727 5725 5723 5721 5718 5716 5714 5712 5710 5708 5706 5704 5702 5700 5699 5697 5695 5694 5693 5692 5690 5689 5688 5687 5687 5687 5687 5687 5687 5686 5686 5687 5687 5688 5689 5690
5724 5722 5720 5718 5716 5714 5712 5709 5707 5705 5703 5701 5699 5697 5696 5694 5692 5690 5688 5686 5684 5683 5682 5680 5680 5679 5678 5678 5679 5679 5678 5678 5677 5677 5677 5678 5678 5679
5717 5715 5714 5712 5710 5708 5705 5703 5701 5699 5697 5695 5692 5691 5689 5687 5685 5683 5681 5679 5677 5675 5673 5672 5671 5670 5669 5669 5669 5669 5669 5668 5667 5667 5667 5667 5668 5668
5710 5708 5707 5705 5703 5701 5699 5696 5694 5692 5689 5687 5685 5683 5681 5679 5677 5674 5672 5670 5669 5667 5665 5664 5662 5661 5660 5660 5659 5659 5659 5658 5658 5657 5657 5657 5658 5658
5703 5701 5700 5698 5696 5694 5691 5689 5687 5684 5682 5680 5677 5675 5673 5671 5668 5666 5664 5662 5660 5659 5657 5655 5653 5652 5651 5650 5650 5649 5649 5648 5648 5647 5647 5647 5648 5648
5696 5694 5693 5691 5689 5687 5684 5682 5680 5677 5675 5672 5670 5667 5665 5662 5660 5658 5656 5654 5652 5650 5648 5647 5644 5643 5642 5642 5641 5640 5639 5638 5638 5637 5637 5637 5637 5637
5689 5687 5685 5684 5681 5679 5677 5675 5672 5670 5667 5664 5662 5659 5657 5655 5652 5650 5648 5646 5644 5642 5640 5638 5636 5634 5633 5633 5632 5630 5629 5629 5628 5628 5627 5627 5627 5627
5682 5680 5678 5676 5674 5672 5670 5667 5665 5662 5659 5657 5654 5652 5649 5647 5645 5642 5640 5638 5636 5634 5632 5629 5627 5625 5624 5623 5622 5622 5620 5619 5619 5618 5618 5617 5617 5616
5675 5673 5671 5669 5667 5665 5662 5660 5657 5654 5652 5649 5646 5644 5641 5639 5637 5634 5632 5630 5627 5625 5623 5621 5619 5617 5615 5614 5614 5613 5612 5610 5610 5609 5609 5608 5608 5607
5668 5666 5664 5662 5660 5657 5655 5652 5649 5647 5644 5641 5639 5636 5634 5631 5629 5626 5624 5622 5619 5617 5615 5613 5611 5609 5607 5606 5605 5604 5603 5602 5601 5600 5600 5599 5599 5598
5660 5659 5657 5655 5652 5650 5647 5645 5642 5639 5636 5634 5631 5629 5626 5624 5621 5619 5616 5614 5611 5609 5607 5605 5603 5601 5599 5597 5596 5595 5594 5593 5592 5592 5592 5591 5591 5590